{"data":{"norad_id":67703,"intl_designator":"2026-025L","name":"STARLINK-36630","alt_names":[],"object_type":"PAYLOAD","status":"ACTIVE","operator":null,"country":"US","launch_date":"2026-02-07","launch_site_code":"AFWTR","launch_vehicle":null,"mission":null,"orbit_class":"UNKNOWN","rcs_meters":null,"size_class":null,"mass_kg":null,"dimensions":null,"purposes":["comms"],"wikipedia_slug":null,"has_3d_model":false,"image_url":null,"decayed_at":null,"tle_current":{"epoch":"2026-05-25T00:56:18.913056Z","epoch_age_seconds":74874,"freshness":"FRESH","line1":"1 67703U 26025L   26145.03910779  .00011462  00000+0  35670-3 0  9999","line2":"2 67703  97.2852 256.6575 0000580 110.0230 250.1075 15.33455041 17711","mean_motion":15.33455041,"eccentricity":5.8e-5,"inclination_deg":97.2852,"raan_deg":256.6575,"arg_perigee_deg":110.023,"mean_anomaly_deg":250.1075,"bstar":0.0003567,"rev_number":1771,"period_min":93.905589762902,"perigee_km":465.11636797221,"apogee_km":465.91023140697,"semimajor_km":6843.6502996896,"source":"CELESTRAK","updated_at":"2026-05-25T13:38:21.664765Z"}}}